TimeCST,TemperatureF,Dew PointF,Humidity,Sea Level PressureIn,VisibilityMPH,Wind Direction,Wind SpeedMPH,Gust SpeedMPH,PrecipitationIn,Events,Conditions,WindDirDegrees,DateUTC
12:15 AM,37.4,21.2,52,30.48,10.0,NNE,5.8,-,N/A,,Clear,30,2011-11-10 06:15:00
12:35 AM,32.0,17.6,55,30.49,10.0,West,4.6,-,N/A,,Clear,280,2011-11-10 06:35:00
12:55 AM,33.8,19.4,56,30.49,10.0,NW,5.8,-,N/A,,Clear,320,2011-11-10 06:55:00
1:15 AM,33.8,19.4,56,30.49,10.0,NNW,5.8,-,N/A,,Clear,330,2011-11-10 07:15:00
1:35 AM,30.2,19.4,64,30.49,10.0,NNW,9.2,-,N/A,,Clear,340,2011-11-10 07:35:00
1:55 AM,30.2,19.4,64,30.49,10.0,North,6.9,-,N/A,,Clear,10,2011-11-10 07:55:00
2:15 AM,30.2,19.4,64,30.48,10.0,NNE,6.9,-,N/A,,Clear,20,2011-11-10 08:15:00
2:35 AM,28.4,19.4,69,30.48,10.0,North,4.6,-,N/A,,Clear,10,2011-11-10 08:35:00
2:55 AM,30.2,21.2,69,30.48,10.0,Calm,Calm,-,N/A,,Clear,0,2011-11-10 08:55:00
3:15 AM,30.2,19.4,64,30.49,10.0,NW,4.6,-,N/A,,Clear,310,2011-11-10 09:15:00
3:35 AM,28.4,19.4,69,30.48,10.0,North,8.1,-,N/A,,Clear,350,2011-11-10 09:35:00
3:55 AM,26.6,17.6,69,30.48,10.0,NNW,9.2,-,N/A,,Clear,340,2011-11-10 09:55:00
4:15 AM,26.6,19.4,74,30.47,10.0,North,6.9,-,N/A,,Clear,350,2011-11-10 10:15:00
4:35 AM,26.6,17.6,69,30.49,10.0,NNW,8.1,-,N/A,,Clear,330,2011-11-10 10:35:00
4:55 AM,24.8,17.6,74,30.49,10.0,NNW,9.2,-,N/A,,Clear,340,2011-11-10 10:55:00
5:15 AM,26.6,19.4,74,30.49,10.0,North,8.1,-,N/A,,Clear,350,2011-11-10 11:15:00
5:55 AM,23.0,15.8,74,30.49,10.0,NE,6.9,-,N/A,,Clear,40,2011-11-10 11:55:00
6:15 AM,24.8,19.4,80,30.50,10.0,NNE,5.8,-,N/A,,Clear,30,2011-11-10 12:15:00
6:35 AM,24.8,17.6,74,30.50,10.0,NNE,4.6,-,N/A,,Clear,20,2011-11-10 12:35:00
6:55 AM,24.8,17.6,74,30.50,10.0,North,6.9,-,N/A,,Clear,10,2011-11-10 12:55:00
7:15 AM,24.8,17.6,74,30.51,10.0,North,6.9,-,N/A,,Clear,10,2011-11-10 13:15:00
7:35 AM,24.8,19.4,80,30.52,10.0,Calm,Calm,-,N/A,,Clear,0,2011-11-10 13:35:00
7:55 AM,26.6,19.4,74,30.53,10.0,NNW,5.8,-,N/A,,Clear,340,2011-11-10 13:55:00
8:35 AM,35.6,21.2,56,30.54,10.0,Calm,Calm,-,N/A,,Clear,0,2011-11-10 14:35:00
8:55 AM,39.2,21.2,49,30.54,10.0,NW,3.5,-,N/A,,Clear,320,2011-11-10 14:55:00
9:15 AM,41.0,21.2,45,30.54,10.0,Calm,Calm,-,N/A,,Clear,0,2011-11-10 15:15:00
9:35 AM,42.8,21.2,42,30.55,10.0,Calm,Calm,-,N/A,,Clear,0,2011-11-10 15:35:00
9:55 AM,42.8,21.2,42,30.55,10.0,East,5.8,-,N/A,,Clear,100,2011-11-10 15:55:00
10:15 AM,46.4,21.2,37,30.54,10.0,ESE,9.2,-,N/A,,Clear,110,2011-11-10 16:15:00
10:35 AM,46.4,21.2,37,30.54,10.0,South,8.1,-,N/A,,Clear,170,2011-11-10 16:35:00
10:55 AM,46.4,21.2,37,30.53,10.0,ESE,5.8,-,N/A,,Clear,110,2011-11-10 16:55:00
11:15 AM,46.4,19.4,34,30.52,10.0,SE,8.1,-,N/A,,Clear,130,2011-11-10 17:15:00
11:55 AM,50.0,21.2,32,30.51,10.0,East,5.8,-,N/A,,Clear,90,2011-11-10 17:55:00
12:35 PM,51.8,19.4,28,30.49,10.0,South,5.8,-,N/A,,Clear,180,2011-11-10 18:35:00
12:55 PM,51.8,19.4,28,30.47,10.0,SSW,4.6,-,N/A,,Clear,200,2011-11-10 18:55:00
1:15 PM,51.8,19.4,28,30.46,10.0,South,3.5,-,N/A,,Clear,180,2011-11-10 19:15:00
1:35 PM,51.8,17.6,26,30.44,10.0,Calm,Calm,-,N/A,,Clear,0,2011-11-10 19:35:00
1:55 PM,53.6,19.4,26,30.43,10.0,ESE,8.1,-,N/A,,Clear,120,2011-11-10 19:55:00
2:15 PM,53.6,17.6,24,30.42,10.0,South,5.8,-,N/A,,Clear,190,2011-11-10 20:15:00
2:35 PM,53.6,17.6,24,30.41,10.0,SSW,4.6,-,N/A,,Clear,210,2011-11-10 20:35:00
3:15 PM,53.6,17.6,24,30.40,10.0,SSE,4.6,-,N/A,,Clear,160,2011-11-10 21:15:00
3:35 PM,53.6,17.6,24,30.39,10.0,South,6.9,-,N/A,,Clear,190,2011-11-10 21:35:00
3:55 PM,53.6,17.6,24,30.38,10.0,Calm,Calm,-,N/A,,Clear,0,2011-11-10 21:55:00
4:15 PM,53.6,15.8,22,30.38,10.0,WSW,5.8,-,N/A,,Clear,240,2011-11-10 22:15:00
4:35 PM,53.6,15.8,22,30.38,10.0,Calm,Calm,-,N/A,,Clear,0,2011-11-10 22:35:00
4:55 PM,53.6,17.6,24,30.37,10.0,South,4.6,-,N/A,,Clear,180,2011-11-10 22:55:00
5:15 PM,53.6,17.6,24,30.36,10.0,Calm,Calm,-,N/A,,Clear,0,2011-11-10 23:15:00
5:35 PM,51.8,15.8,24,30.37,10.0,South,4.6,-,N/A,,Clear,170,2011-11-10 23:35:00
5:55 PM,51.8,15.8,24,30.36,10.0,South,4.6,-,N/A,,Clear,170,2011-11-10 23:55:00
6:15 PM,48.2,15.8,27,30.37,10.0,South,5.8,-,N/A,,Clear,180,2011-11-11 00:15:00
6:35 PM,46.4,15.8,29,30.36,10.0,South,4.6,-,N/A,,Clear,180,2011-11-11 00:35:00
6:55 PM,46.4,15.8,29,30.36,10.0,SSE,4.6,-,N/A,,Clear,160,2011-11-11 00:55:00
7:15 PM,44.6,14.0,29,30.36,10.0,South,5.8,-,N/A,,Clear,190,2011-11-11 01:15:00
7:35 PM,41.0,12.2,31,30.36,10.0,SSW,5.8,-,N/A,,Clear,200,2011-11-11 01:35:00
7:55 PM,41.0,14.0,33,30.36,10.0,South,4.6,-,N/A,,Clear,180,2011-11-11 01:55:00
8:15 PM,35.6,10.4,35,30.36,10.0,East,3.5,-,N/A,,Clear,80,2011-11-11 02:15:00
8:35 PM,33.8,8.6,35,30.36,10.0,ESE,5.8,-,N/A,,Clear,110,2011-11-11 02:35:00
8:55 PM,33.8,10.4,38,30.36,10.0,East,5.8,-,N/A,,Clear,90,2011-11-11 02:55:00
9:15 PM,33.8,12.2,41,30.36,10.0,Calm,Calm,-,N/A,,Clear,0,2011-11-11 03:15:00
9:35 PM,30.2,6.8,37,30.36,10.0,Calm,Calm,-,N/A,,Clear,0,2011-11-11 03:35:00
9:55 PM,28.4,6.8,40,30.36,10.0,Calm,Calm,-,N/A,,Clear,0,2011-11-11 03:55:00
10:15 PM,26.6,3.2,37,30.37,10.0,Calm,Calm,-,N/A,,Clear,0,2011-11-11 04:15:00
10:35 PM,26.6,5.0,40,30.36,10.0,Calm,Calm,-,N/A,,Clear,0,2011-11-11 04:35:00
10:55 PM,26.6,5.0,40,30.36,10.0,Calm,Calm,-,N/A,,Clear,0,2011-11-11 04:55:00
11:15 PM,24.8,3.2,40,30.35,10.0,Calm,Calm,-,N/A,,Clear,0,2011-11-11 05:15:00
11:35 PM,24.8,5.0,43,30.34,10.0,NNE,4.6,-,N/A,,Clear,20,2011-11-11 05:35:00
11:55 PM,24.8,6.8,46,30.33,10.0,NNE,5.8,-,N/A,,Clear,20,2011-11-11 05:55:00